Time,TemperatureF,DewpointF,PressureIn,WindDirection,WindDirectionDegrees,WindSpeedMPH,WindSpeedGustMPH,Humidity,HourlyPrecipIn,Conditions,Clouds,dailyrainin,SoftwareType,DateUTC
2013-04-27 00:00:00,48.0,48.0,30.29,SW,220,6.0,7.0,100,-99.99,,,-99.99,,2013-04-27 07:00:00,
2013-04-27 00:21:00,48.0,48.0,30.29,SW,220,6.0,7.0,100,-99.99,,,-99.99,,2013-04-27 07:21:00,
2013-04-27 00:31:00,48.0,48.0,30.29,SW,220,6.0,7.0,100,-99.99,,,-99.99,,2013-04-27 07:31:00,
2013-04-27 00:41:00,48.0,48.0,30.29,SW,220,6.0,7.0,100,-99.99,,,-99.99,,2013-04-27 07:41:00,
2013-04-27 00:52:00,48.0,48.0,30.29,SW,220,6.0,7.0,100,-99.99,,,-99.99,,2013-04-27 07:52:00,
2013-04-27 01:00:00,49.0,49.0,30.29,WSW,240,3.0,5.0,100,-99.99,,,-99.99,,2013-04-27 08:00:00,
2013-04-27 01:21:00,49.0,49.0,30.29,WSW,240,3.0,5.0,100,-99.99,,,-99.99,,2013-04-27 08:21:00,
2013-04-27 01:32:00,49.0,49.0,30.29,WSW,240,3.0,5.0,100,-99.99,,,-99.99,,2013-04-27 08:32:00,
2013-04-27 01:41:00,49.0,49.0,30.29,WSW,240,3.0,5.0,100,-99.99,,,-99.99,,2013-04-27 08:41:00,
2013-04-27 01:51:00,49.0,49.0,30.29,WSW,240,3.0,5.0,100,-99.99,,,-99.99,,2013-04-27 08:51:00,
2013-04-27 02:00:00,49.0,49.0,30.30,South,190,2.0,3.0,100,-99.99,,,-99.99,,2013-04-27 09:00:00,
2013-04-27 02:21:00,49.0,49.0,30.30,South,190,2.0,3.0,100,-99.99,,,-99.99,,2013-04-27 09:21:00,
2013-04-27 02:33:00,49.0,49.0,30.30,South,190,2.0,3.0,100,-99.99,,,-99.99,,2013-04-27 09:33:00,
2013-04-27 02:42:00,49.0,49.0,30.30,South,190,2.0,3.0,100,-99.99,,,-99.99,,2013-04-27 09:42:00,
2013-04-27 02:53:00,49.0,49.0,30.30,South,190,2.0,3.0,100,-99.99,,,-99.99,,2013-04-27 09:53:00,
2013-04-27 03:00:00,49.0,49.0,30.29,SSW,200,1.0,2.0,100,-99.99,,,-99.99,,2013-04-27 10:00:00,
2013-04-27 03:11:00,49.0,49.0,30.29,SSW,200,1.0,2.0,100,-99.99,,,-99.99,,2013-04-27 10:11:00,
2013-04-27 03:22:00,49.0,49.0,30.29,SSW,200,1.0,2.0,100,-99.99,,,-99.99,,2013-04-27 10:22:00,
2013-04-27 03:32:00,49.0,49.0,30.29,SSW,200,1.0,2.0,100,-99.99,,,-99.99,,2013-04-27 10:32:00,
2013-04-27 03:42:00,49.0,49.0,30.29,SSW,200,1.0,2.0,100,-99.99,,,-99.99,,2013-04-27 10:42:00,
2013-04-27 03:52:00,49.0,49.0,30.29,SSW,200,1.0,2.0,100,-99.99,,,-99.99,,2013-04-27 10:52:00,
2013-04-27 04:00:00,48.0,48.0,30.29,SE,140,5.0,5.0,100,-99.99,,,-99.99,,2013-04-27 11:00:00,
2013-04-27 04:21:00,48.0,48.0,30.29,SE,140,5.0,5.0,100,-99.99,,,-99.99,,2013-04-27 11:21:00,
2013-04-27 04:31:00,48.0,48.0,30.29,SE,140,5.0,5.0,100,-99.99,,,-99.99,,2013-04-27 11:31:00,
2013-04-27 04:41:00,48.0,48.0,30.29,SE,140,5.0,5.0,100,-99.99,,,-99.99,,2013-04-27 11:41:00,
2013-04-27 04:51:00,48.0,48.0,30.29,SE,140,5.0,5.0,100,-99.99,,,-99.99,,2013-04-27 11:51:00,
2013-04-27 05:00:00,48.0,48.0,30.28,SE,140,5.0,5.0,100,-99.99,,,-99.99,,2013-04-27 12:00:00,
2013-04-27 05:21:00,48.0,48.0,30.28,SE,140,5.0,5.0,100,-99.99,,,-99.99,,2013-04-27 12:21:00,
2013-04-27 05:32:00,48.0,48.0,30.28,SE,140,5.0,5.0,100,-99.99,,,-99.99,,2013-04-27 12:32:00,
2013-04-27 05:42:00,48.0,48.0,30.28,SE,140,5.0,5.0,100,-99.99,,,-99.99,,2013-04-27 12:42:00,
2013-04-27 05:51:00,48.0,48.0,30.28,SE,140,5.0,5.0,100,-99.99,,,-99.99,,2013-04-27 12:51:00,
2013-04-27 06:00:00,47.0,47.0,30.28,SE,140,2.0,3.0,100,-99.99,,,-99.99,,2013-04-27 13:00:00,
2013-04-27 06:21:00,47.0,47.0,30.28,SE,140,2.0,3.0,100,-99.99,,,-99.99,,2013-04-27 13:21:00,
2013-04-27 06:32:00,47.0,47.0,30.28,SE,140,2.0,3.0,100,-99.99,,,-99.99,,2013-04-27 13:32:00,
2013-04-27 06:41:00,47.0,47.0,30.28,SE,140,2.0,3.0,100,-99.99,,,-99.99,,2013-04-27 13:41:00,
2013-04-27 06:52:00,47.0,47.0,30.28,SE,140,2.0,3.0,100,-99.99,,,-99.99,,2013-04-27 13:52:00,
2013-04-27 07:00:00,46.0,46.0,30.29,SSE,160,2.0,3.0,100,-99.99,,,-99.99,,2013-04-27 14:00:00,
2013-04-27 07:21:00,46.0,46.0,30.29,SSE,160,2.0,3.0,100,-99.99,,,-99.99,,2013-04-27 14:21:00,
2013-04-27 07:31:00,46.0,46.0,30.29,SSE,160,2.0,3.0,100,-99.99,,,-99.99,,2013-04-27 14:31:00,
2013-04-27 07:41:00,46.0,46.0,30.29,SSE,160,2.0,3.0,100,-99.99,,,-99.99,,2013-04-27 14:41:00,
2013-04-27 07:51:00,46.0,46.0,30.29,SSE,160,2.0,3.0,100,-99.99,,,-99.99,,2013-04-27 14:51:00,
2013-04-27 08:00:00,47.0,47.0,30.31,South,170,3.0,3.0,100,-99.99,,,-99.99,,2013-04-27 15:00:00,
2013-04-27 08:21:00,47.0,47.0,30.31,South,170,3.0,3.0,100,-99.99,,,-99.99,,2013-04-27 15:21:00,
2013-04-27 08:33:00,47.0,47.0,30.31,South,170,3.0,3.0,100,-99.99,,,-99.99,,2013-04-27 15:33:00,
2013-04-27 08:42:00,47.0,47.0,30.31,South,170,3.0,3.0,100,-99.99,,,-99.99,,2013-04-27 15:42:00,
2013-04-27 08:52:00,47.0,47.0,30.31,South,170,3.0,3.0,100,-99.99,,,-99.99,,2013-04-27 15:52:00,
2013-04-27 09:00:00,47.0,47.0,30.32,South,180,7.0,8.0,100,-99.99,,,-99.99,,2013-04-27 16:00:00,
2013-04-27 09:22:00,47.0,47.0,30.32,South,180,7.0,8.0,100,-99.99,,,-99.99,,2013-04-27 16:22:00,
2013-04-27 09:32:00,47.0,47.0,30.32,South,180,7.0,8.0,100,-99.99,,,-99.99,,2013-04-27 16:32:00,
2013-04-27 09:42:00,47.0,47.0,30.32,South,180,7.0,8.0,100,-99.99,,,-99.99,,2013-04-27 16:42:00,
2013-04-27 09:52:00,47.0,47.0,30.32,South,180,7.0,8.0,100,-99.99,,,-99.99,,2013-04-27 16:52:00,
2013-04-27 10:00:00,48.0,48.0,30.34,SW,220,6.0,7.0,100,-99.99,,,-99.99,,2013-04-27 17:00:00,
2013-04-27 10:11:00,48.0,48.0,30.34,SW,220,6.0,7.0,100,-99.99,,,-99.99,,2013-04-27 17:11:00,
2013-04-27 10:22:00,48.0,48.0,30.34,SW,220,6.0,7.0,100,-99.99,,,-99.99,,2013-04-27 17:22:00,
2013-04-27 10:31:00,48.0,48.0,30.34,SW,220,6.0,7.0,100,-99.99,,,-99.99,,2013-04-27 17:31:00,
2013-04-27 10:42:00,48.0,48.0,30.34,SW,220,6.0,7.0,100,-99.99,,,-99.99,,2013-04-27 17:42:00,
2013-04-27 10:52:00,48.0,48.0,30.34,SW,220,6.0,7.0,100,-99.99,,,-99.99,,2013-04-27 17:52:00,
2013-04-27 11:00:00,49.0,49.0,30.35,SW,230,3.0,6.0,100,-99.99,,,-99.99,,2013-04-27 18:00:00,
2013-04-27 11:21:00,49.0,49.0,30.35,SW,230,3.0,6.0,100,-99.99,,,-99.99,,2013-04-27 18:21:00,
2013-04-27 11:31:00,49.0,49.0,30.35,SW,230,3.0,6.0,100,-99.99,,,-99.99,,2013-04-27 18:31:00,
2013-04-27 11:41:00,49.0,49.0,30.35,SW,230,3.0,6.0,100,-99.99,,,-99.99,,2013-04-27 18:41:00,
2013-04-27 11:51:00,49.0,49.0,30.35,SW,230,3.0,6.0,100,-99.99,,,-99.99,,2013-04-27 18:51:00,
2013-04-27 12:00:00,50.0,49.0,30.34,SW,230,10.0,11.0,97,-99.99,,,-99.99,,2013-04-27 19:00:00,
2013-04-27 12:21:00,50.0,49.0,30.34,SW,230,10.0,11.0,97,-99.99,,,-99.99,,2013-04-27 19:21:00,
2013-04-27 12:31:00,50.0,49.0,30.34,SW,230,10.0,11.0,97,-99.99,,,-99.99,,2013-04-27 19:31:00,
2013-04-27 12:41:00,50.0,49.0,30.34,SW,230,10.0,11.0,97,-99.99,,,-99.99,,2013-04-27 19:41:00,
2013-04-27 12:52:00,50.0,49.0,30.34,SW,230,10.0,11.0,97,-99.99,,,-99.99,,2013-04-27 19:52:00,
2013-04-27 13:00:00,50.0,49.0,30.34,WSW,250,9.0,10.0,94,-99.99,,,-99.99,,2013-04-27 20:00:00,
2013-04-27 13:11:00,50.0,49.0,30.34,WSW,250,9.0,10.0,94,-99.99,,,-99.99,,2013-04-27 20:11:00,
2013-04-27 13:21:00,50.0,49.0,30.34,WSW,250,9.0,10.0,94,-99.99,,,-99.99,,2013-04-27 20:21:00,
2013-04-27 13:31:00,50.0,49.0,30.34,WSW,250,9.0,10.0,94,-99.99,,,-99.99,,2013-04-27 20:31:00,
2013-04-27 13:41:00,50.0,49.0,30.34,WSW,250,9.0,10.0,94,-99.99,,,-99.99,,2013-04-27 20:41:00,
2013-04-27 13:52:00,50.0,49.0,30.34,WSW,250,9.0,10.0,94,-99.99,,,-99.99,,2013-04-27 20:52:00,
2013-04-27 14:00:00,48.0,47.0,30.34,West,270,7.0,8.0,97,-99.99,,,-99.99,,2013-04-27 21:00:00,
2013-04-27 14:11:00,48.0,47.0,30.34,West,270,7.0,8.0,97,-99.99,,,-99.99,,2013-04-27 21:11:00,
2013-04-27 14:21:00,48.0,47.0,30.34,West,270,7.0,8.0,97,-99.99,,,-99.99,,2013-04-27 21:21:00,
2013-04-27 14:32:00,48.0,47.0,30.34,West,270,7.0,8.0,97,-99.99,,,-99.99,,2013-04-27 21:32:00,
2013-04-27 14:42:00,48.0,47.0,30.34,West,270,7.0,8.0,97,-99.99,,,-99.99,,2013-04-27 21:42:00,
2013-04-27 14:53:00,48.0,47.0,30.34,West,270,7.0,8.0,97,-99.99,,,-99.99,,2013-04-27 21:53:00,
2013-04-27 15:00:00,49.0,47.0,30.34,West,270,8.0,10.0,94,-99.99,,,-99.99,,2013-04-27 22:00:00,
2013-04-27 15:22:00,49.0,47.0,30.34,West,270,8.0,10.0,94,-99.99,,,-99.99,,2013-04-27 22:22:00,
2013-04-27 15:32:00,49.0,47.0,30.34,West,270,8.0,10.0,94,-99.99,,,-99.99,,2013-04-27 22:32:00,
2013-04-27 15:42:00,49.0,47.0,30.34,West,270,8.0,10.0,94,-99.99,,,-99.99,,2013-04-27 22:42:00,
2013-04-27 15:52:00,49.0,47.0,30.34,West,270,8.0,10.0,94,-99.99,,,-99.99,,2013-04-27 22:52:00,
2013-04-27 16:00:00,50.0,47.0,30.33,West,270,2.0,3.0,90,-99.99,,,-99.99,,2013-04-27 23:00:00,
2013-04-27 16:22:00,50.0,47.0,30.33,West,270,2.0,3.0,90,-99.99,,,-99.99,,2013-04-27 23:22:00,
2013-04-27 16:32:00,50.0,47.0,30.33,West,270,2.0,3.0,90,-99.99,,,-99.99,,2013-04-27 23:32:00,
2013-04-27 16:42:00,50.0,47.0,30.33,West,270,2.0,3.0,90,-99.99,,,-99.99,,2013-04-27 23:42:00,
2013-04-27 16:52:00,50.0,47.0,30.33,West,270,2.0,3.0,90,-99.99,,,-99.99,,2013-04-27 23:52:00,
2013-04-27 17:00:00,50.0,47.0,30.32,WNW,300,3.0,5.0,90,-99.99,,,-99.99,,2013-04-28 00:00:00,
2013-04-27 17:11:00,50.0,47.0,30.32,WNW,300,3.0,5.0,90,-99.99,,,-99.99,,2013-04-28 00:11:00,
2013-04-27 17:21:00,50.0,47.0,30.32,WNW,300,3.0,5.0,90,-99.99,,,-99.99,,2013-04-28 00:21:00,
2013-04-27 17:31:00,50.0,47.0,30.32,WNW,300,3.0,5.0,90,-99.99,,,-99.99,,2013-04-28 00:31:00,
2013-04-27 17:42:00,50.0,47.0,30.32,WNW,300,3.0,5.0,90,-99.99,,,-99.99,,2013-04-28 00:42:00,
2013-04-27 17:51:00,50.0,47.0,30.32,WNW,300,3.0,5.0,90,-99.99,,,-99.99,,2013-04-28 00:51:00,
2013-04-27 18:00:00,49.0,48.0,30.32,West,280,3.0,5.0,96,-99.99,,,-99.99,,2013-04-28 01:00:00,
2013-04-27 18:21:00,49.0,48.0,30.32,West,280,3.0,5.0,96,-99.99,,,-99.99,,2013-04-28 01:21:00,
2013-04-27 18:31:00,49.0,48.0,30.32,West,280,3.0,5.0,96,-99.99,,,-99.99,,2013-04-28 01:31:00,
2013-04-27 18:41:00,49.0,48.0,30.32,West,280,3.0,5.0,96,-99.99,,,-99.99,,2013-04-28 01:41:00,
2013-04-27 18:52:00,49.0,48.0,30.32,West,280,3.0,5.0,96,-99.99,,,-99.99,,2013-04-28 01:52:00,
2013-04-27 19:00:00,49.0,48.0,30.32,WNW,300,2.0,3.0,97,-99.99,,,-99.99,,2013-04-28 02:00:00,
2013-04-27 19:11:00,49.0,48.0,30.32,WNW,300,2.0,3.0,97,-99.99,,,-99.99,,2013-04-28 02:11:00,
2013-04-27 19:21:00,49.0,48.0,30.32,WNW,300,2.0,3.0,97,-99.99,,,-99.99,,2013-04-28 02:21:00,
2013-04-27 19:31:00,49.0,48.0,30.32,WNW,300,2.0,3.0,97,-99.99,,,-99.99,,2013-04-28 02:31:00,
2013-04-27 19:41:00,49.0,48.0,30.32,WNW,300,2.0,3.0,97,-99.99,,,-99.99,,2013-04-28 02:41:00,
2013-04-27 19:52:00,49.0,48.0,30.32,WNW,300,2.0,3.0,97,-99.99,,,-99.99,,2013-04-28 02:52:00,
2013-04-27 20:00:00,49.0,49.0,30.30,SSW,200,2.0,3.0,100,-99.99,,,-99.99,,2013-04-28 03:00:00,
2013-04-27 20:21:00,49.0,49.0,30.30,SSW,200,2.0,3.0,100,-99.99,,,-99.99,,2013-04-28 03:21:00,
2013-04-27 20:32:00,49.0,49.0,30.30,SSW,200,2.0,3.0,100,-99.99,,,-99.99,,2013-04-28 03:32:00,
2013-04-27 20:42:00,49.0,49.0,30.30,SSW,200,2.0,3.0,100,-99.99,,,-99.99,,2013-04-28 03:42:00,
2013-04-27 20:53:00,49.0,49.0,30.30,SSW,200,2.0,3.0,100,-99.99,,,-99.99,,2013-04-28 03:53:00,
2013-04-27 21:00:00,49.0,49.0,30.31,SSW,210,2.0,2.0,100,-99.99,,,-99.99,,2013-04-28 04:00:00,
2013-04-27 21:13:00,49.0,49.0,30.31,SSW,210,2.0,2.0,100,-99.99,,,-99.99,,2013-04-28 04:13:00,
2013-04-27 21:22:00,49.0,49.0,30.31,SSW,210,2.0,2.0,100,-99.99,,,-99.99,,2013-04-28 04:22:00,
2013-04-27 21:32:00,49.0,49.0,30.31,SSW,210,2.0,2.0,100,-99.99,,,-99.99,,2013-04-28 04:32:00,
2013-04-27 21:42:00,49.0,49.0,30.31,SSW,210,2.0,2.0,100,-99.99,,,-99.99,,2013-04-28 04:42:00,
2013-04-27 21:52:00,49.0,49.0,30.31,SSW,210,2.0,2.0,100,-99.99,,,-99.99,,2013-04-28 04:52:00,
2013-04-27 22:00:00,49.0,49.0,30.32,SSW,210,2.0,3.0,100,-99.99,,,-99.99,,2013-04-28 05:00:00,
2013-04-27 22:12:00,49.0,49.0,30.32,SSW,210,2.0,3.0,100,-99.99,,,-99.99,,2013-04-28 05:12:00,
2013-04-27 22:22:00,49.0,49.0,30.32,SSW,210,2.0,3.0,100,-99.99,,,-99.99,,2013-04-28 05:22:00,
2013-04-27 22:32:00,49.0,49.0,30.32,SSW,210,2.0,3.0,100,-99.99,,,-99.99,,2013-04-28 05:32:00,
2013-04-27 22:42:00,49.0,49.0,30.32,SSW,210,2.0,3.0,100,-99.99,,,-99.99,,2013-04-28 05:42:00,
2013-04-27 22:51:00,49.0,49.0,30.32,SSW,210,2.0,3.0,100,-99.99,,,-99.99,,2013-04-28 05:51:00,
2013-04-27 23:00:00,49.0,49.0,30.32,South,190,3.0,3.0,100,-99.99,,,-99.99,,2013-04-28 06:00:00,
2013-04-27 23:12:00,49.0,49.0,30.32,South,190,3.0,3.0,100,-99.99,,,-99.99,,2013-04-28 06:12:00,
2013-04-27 23:21:00,49.0,49.0,30.32,South,190,3.0,3.0,100,-99.99,,,-99.99,,2013-04-28 06:21:00,
2013-04-27 23:32:00,49.0,49.0,30.32,South,190,3.0,3.0,100,-99.99,,,-99.99,,2013-04-28 06:32:00,
2013-04-27 23:41:00,49.0,49.0,30.32,South,190,3.0,3.0,100,-99.99,,,-99.99,,2013-04-28 06:41:00,
2013-04-27 23:51:00,49.0,49.0,30.32,South,190,3.0,3.0,100,-99.99,,,-99.99,,2013-04-28 06:51:00,